sat.trackr.live / text

‹ back to catalog

STARLINK-38099

NORAD 69987 · 2026-159N

PAYLOAD ACTIVE UNKNOWN

§ Identity

Operator
Country
US
Launch date
2026-07-11
Launch site
AFWTR
Launch vehicle
Mass (kg)
RCS (m²)

Purposes: comms

External: N2YO · Heavens-Above · Gunter

§ Orbital elements

Epoch: 2026-09-19T17:15:44.510688Z

Period
92.95 min
Inclination
97.2857°
Eccentricity
0.0001487
Mean motion
15.49218557 rev/d
Perigee alt
418.0 km
Apogee alt
420.0 km
Semi-major
6,797.1 km
B*
8.6966e-4
RAAN
104.4886°
Arg perigee
106.2824°
Mean anomaly
253.8591°
Rev number
1,232

§ Raw data

STARLINK-380991 69987U 26159N   26262.71926517  .00047544  00000+0  86966-3 0  99992 69987  97.2857 104.4886 0001487 106.2824 253.8591 15.49218557 12321

JSON: /api/v1/satellites/69987 · /tle

For live sub-satellite position, see the globe view (requires WebGL).

§ Visibility from observer

Set your observer location to see the next 7 days of passes ≥ 10°. The values pass through the URL so the page stays shareable.

No JS? Fill the form by hand. The geolocation button needs JavaScript.